Weather History for Biloxi, MS

Change the Weather History Date:

Sunday, November 27, 2011

  Actual Average Record
Temperature  
Mean Temperature 58 °F -  
Max Temperature 69 °F 69 °F 80 °F (1973)
Min Temperature 47 °F 52 °F 28 °F (1950)
Degree Days  
Heating Degree Days 7    
Growing Degree Days 8 (Base 50)    
Moisture  
Dew Point 58 °F    
Average Humidity 95    
Maximum Humidity 100    
Minimum Humidity 82    
Precipitation  
Precipitation 0.13 in - - ()
Sea Level Pressure  
Sea Level Pressure 29.96 in    
Wind  
Wind Speed 9 mph (NW)    
Max Wind Speed 18 mph    
Max Gust Speed 24 mph    
Visibility 10 miles    
Events Rain    
Averages and records for this station are not official NWS values.
T = Trace of Precipitation, MM = Missing Value Source: NWS Daily Summary

Daily Weather History Graph

Daily Weather History Graph

Search for Another Location

Airport:

Trip Planner

Search our weather history database for the weather conditions in past years. The results will help you decide how hot, cold, wet, or windy it might be!

Date:

Astronomy

Nov. 27, 2011 Rise Set
Actual Time 6:31 AM CST 4:54 PM CST
Civil Twilight 6:05 AM CST 5:20 PM CST
Nautical Twilight 5:35 AM CST 5:50 PM CST
Astronomical Twilight 5:06 AM CST 6:19 PM CST
Moon 8:54 AM CST (11/27) 7:34 PM CST (11/27)
Length of Visible Light 11h 15m
Length of Day
10h 23m
Waxing Crescent, 8% of the Moon is Illuminated
Nov 27
Waxing Crescent
Dec 2
First Quarter
Dec 10
Full
Dec 17
Last Quarter
Dec 24
New

Hourly Weather History & Observations

Time (CST) Temp. Dew Point Humidity Pressure Visibility Wind Dir Wind Speed Gust Speed Precip Events Conditions
12:55 AM 69.3 °F 68.7 °F 98% 29.94 in 10.0 mi South 13.8 mph - N/A   Clear
1:55 AM 69.4 °F 69.4 °F 100% 29.91 in 10.0 mi South 13.8 mph - N/A   Clear
2:34 AM 68.0 °F 68.0 °F 100% 29.91 in 10.0 mi South 12.7 mph - N/A Rain Light Rain
2:43 AM 68.0 °F 68.0 °F 100% 29.91 in 10.0 mi South 10.4 mph - N/A   Partly Cloudy
2:55 AM 67.8 °F 66.9 °F 97% 29.93 in 10.0 mi West 10.4 mph - 0.00 in   Scattered Clouds
2:56 AM 68.0 °F 66.2 °F 94% 29.93 in 9.0 mi West 8.1 mph - N/A Rain Light Rain
3:01 AM 68.0 °F 66.2 °F 94% 29.93 in 9.0 mi West 6.9 mph - N/A Rain Light Rain
3:08 AM 68.0 °F 66.2 °F 94% 29.93 in 10.0 mi West 6.9 mph - N/A   Mostly Cloudy
3:30 AM 68.0 °F 68.0 °F 100% 29.92 in 10.0 mi West 3.5 mph - N/A   Mostly Cloudy
3:38 AM 68.0 °F 68.0 °F 100% 29.92 in 10.0 mi NW 6.9 mph - N/A   Mostly Cloudy
3:45 AM 68.0 °F 66.2 °F 94% 29.93 in 10.0 mi NW 5.8 mph - N/A   Mostly Cloudy
3:49 AM 66.2 °F 66.2 °F 100% 29.92 in 10.0 mi NNW 5.8 mph - N/A   Scattered Clouds
3:55 AM 66.9 °F 66.6 °F 99% 29.92 in 10.0 mi NW 6.9 mph - 0.01 in   Scattered Clouds
3:56 AM 66.2 °F 66.2 °F 100% 29.92 in 10.0 mi NW 6.9 mph - N/A   Scattered Clouds
4:08 AM 66.2 °F 66.2 °F 100% 29.92 in 10.0 mi NW 6.9 mph - N/A   Partly Cloudy
4:48 AM 66.2 °F 66.2 °F 100% 29.92 in 10.0 mi NNW 9.2 mph - N/A   Partly Cloudy
4:55 AM 65.3 °F 65.3 °F 100% 29.92 in 10.0 mi NNW 9.2 mph - N/A   Partly Cloudy
5:07 AM 64.4 °F 64.4 °F 100% 29.92 in 10.0 mi NNW 9.2 mph - N/A Rain Light Rain
5:17 AM 64.4 °F 64.4 °F 100% 29.92 in 10.0 mi NNW 8.1 mph - N/A Rain Light Rain
5:25 AM 64.4 °F 64.4 °F 100% 29.93 in 10.0 mi NNW 9.2 mph - N/A Rain Light Rain
5:30 AM 64.4 °F 64.4 °F 100% 29.92 in 10.0 mi NNW 8.1 mph - N/A   Scattered Clouds
5:55 AM 63.7 °F 63.7 °F 100% 29.93 in 10.0 mi NNW 8.1 mph - 0.00 in   Partly Cloudy
6:02 AM 64.4 °F 64.4 °F 100% 29.94 in 10.0 mi NNW 6.9 mph - N/A   Scattered Clouds
6:12 AM 64.4 °F 64.4 °F 100% 29.95 in 10.0 mi NNW 8.1 mph - N/A Rain Light Rain
6:24 AM 62.6 °F 62.6 °F 100% 29.96 in 10.0 mi NNW 9.2 mph - N/A Rain Light Rain
6:35 AM 62.6 °F 62.6 °F 100% 29.96 in 10.0 mi North 8.1 mph - N/A Rain Light Rain
6:46 AM 62.6 °F 62.6 °F 100% 29.96 in 10.0 mi NNW 6.9 mph - N/A Rain Light Rain
6:55 AM 62.8 °F 62.8 °F 100% 29.96 in 10.0 mi NNW 5.8 mph - 0.02 in Rain Light Rain
7:10 AM 62.6 °F 62.6 °F 100% 29.97 in 4.0 mi NW 4.6 mph - N/A Rain Rain
7:26 AM 62.6 °F 62.6 °F 100% 29.96 in 10.0 mi NNW 8.1 mph - N/A Rain Light Rain
7:40 AM 62.6 °F 62.6 °F 100% 29.96 in 10.0 mi NNW 6.9 mph - N/A Rain Light Rain
7:55 AM 62.1 °F 62.1 °F 100% 29.97 in 10.0 mi NNW 10.4 mph - 0.04 in Rain Light Rain
8:16 AM 60.8 °F 60.8 °F 100% 29.99 in 10.0 mi NW 6.9 mph - N/A   Mostly Cloudy
8:21 AM 62.6 °F 62.6 °F 100% 29.99 in 10.0 mi NW 6.9 mph - N/A Rain Light Rain
8:35 AM 62.6 °F 62.6 °F 100% 29.99 in 10.0 mi NNW 8.1 mph - N/A Rain Light Rain
8:43 AM 60.8 °F 60.8 °F 100% 29.99 in 10.0 mi NNW 8.1 mph - N/A   Scattered Clouds
8:53 AM 60.8 °F 60.8 °F 100% 30.00 in 10.0 mi NNW 6.9 mph - N/A Rain Light Rain
8:55 AM 61.3 °F 61.0 °F 99% 30.00 in 10.0 mi NNW 6.9 mph - 0.01 in Rain Light Rain
9:16 AM 60.8 °F 60.8 °F 100% 30.01 in 5.0 mi NNW 5.8 mph - N/A Rain Light Rain
9:21 AM 60.8 °F 60.8 °F 100% 30.01 in 5.0 mi North 4.6 mph - N/A Rain Rain
9:25 AM 60.8 °F 60.8 °F 100% 30.01 in 4.0 mi NE 3.5 mph - N/A Rain Light Rain
9:36 AM 60.8 °F 60.8 °F 100% 30.01 in 9.0 mi NNE 5.8 mph - N/A Rain Light Rain
9:55 AM 61.3 °F 61.2 °F 99% 29.99 in 10.0 mi NNE 5.8 mph - 0.04 in Rain Light Rain
10:09 AM 62.6 °F 60.8 °F 94% 29.99 in 10.0 mi NNE 4.6 mph - N/A   Clear
10:26 AM 62.6 °F 62.6 °F 100% 29.99 in 10.0 mi NNW 4.6 mph - N/A Rain Light Rain
10:35 AM 62.6 °F 62.6 °F 100% 29.98 in 10.0 mi NNW 4.6 mph - N/A   Partly Cloudy
10:44 AM 62.6 °F 62.6 °F 100% 29.98 in 10.0 mi Calm Calm - N/A   Mostly Cloudy
10:55 AM 63.5 °F 62.1 °F 95% 29.98 in 10.0 mi Calm Calm - 0.00 in   Mostly Cloudy
11:01 AM 62.6 °F 62.6 °F 100% 29.98 in 10.0 mi West 3.5 mph - N/A   Mostly Cloudy
11:35 AM 62.6 °F 60.8 °F 94% 29.97 in 10.0 mi Variable 3.5 mph - N/A   Overcast
11:44 AM 62.6 °F 60.8 °F 94% 29.96 in 10.0 mi Calm Calm - N/A   Overcast
11:46 AM 62.6 °F 60.8 °F 94% 29.96 in 10.0 mi Calm Calm - N/A   Overcast
11:55 AM 63.7 °F 60.8 °F 90% 29.96 in 10.0 mi Calm Calm - N/A   Overcast
12:38 PM 64.4 °F 60.8 °F 88% 29.94 in 10.0 mi Calm Calm - N/A   Overcast
12:39 PM 64.4 °F 60.8 °F 88% 29.94 in 10.0 mi Calm Calm - N/A   Overcast
12:41 PM 64.4 °F 60.8 °F 88% 29.94 in 10.0 mi Calm Calm - N/A   Overcast
12:55 PM 64.8 °F 61.2 °F 88% 29.94 in 10.0 mi Calm Calm - N/A   Overcast
1:02 PM 66.2 °F 60.8 °F 83% 29.94 in 10.0 mi Variable 3.5 mph - N/A   Mostly Cloudy
1:16 PM 66.2 °F 60.8 °F 83% 29.94 in 10.0 mi Variable 4.6 mph - N/A   Overcast
1:55 PM 63.9 °F 59.9 °F 87% 29.93 in 10.0 mi West 6.9 mph - N/A   Overcast
1:59 PM 62.6 °F 60.8 °F 94% 29.93 in 10.0 mi Variable 6.9 mph - N/A   Overcast
2:03 PM 62.6 °F 60.8 °F 94% 29.93 in 10.0 mi Variable 4.6 mph - N/A   Overcast
2:07 PM 62.6 °F 59.0 °F 88% 29.93 in 10.0 mi Variable 4.6 mph - N/A   Overcast
2:08 PM 60.8 °F 59.0 °F 94% 29.93 in 10.0 mi Variable 4.6 mph - N/A   Overcast
2:28 PM 59.0 °F 59.0 °F 100% 29.94 in 10.0 mi Variable 4.6 mph - N/A   Overcast
2:29 PM 59.0 °F 59.0 °F 100% 29.94 in 10.0 mi Variable 3.5 mph - N/A   Overcast
2:38 PM 59.0 °F 57.2 °F 94% 29.94 in 10.0 mi Variable 4.6 mph - N/A   Overcast
2:55 PM 58.3 °F 57.4 °F 97% 29.94 in 10.0 mi Variable 4.6 mph - 0.01 in   Overcast
3:05 PM 59.0 °F 57.2 °F 94% 29.94 in 10.0 mi Variable 3.5 mph - N/A   Overcast
3:30 PM 57.2 °F 55.4 °F 94% 29.92 in 10.0 mi Variable 6.9 mph - N/A   Overcast
3:55 PM 57.2 °F 55.4 °F 94% 29.93 in 10.0 mi Variable 6.9 mph - N/A   Mostly Cloudy
4:27 PM 55.4 °F 55.4 °F 100% 29.93 in 10.0 mi Variable 6.9 mph - N/A   Overcast
4:55 PM 54.1 °F 52.7 °F 95% 29.95 in 9.0 mi NW 8.1 mph 18.4 mph N/A   Overcast
5:06 PM 53.6 °F 51.8 °F 94% 29.96 in 10.0 mi NW 13.8 mph 24.2 mph N/A   Overcast
5:19 PM 53.6 °F 51.8 °F 94% 29.95 in 10.0 mi NW 12.7 mph - N/A   Overcast
5:23 PM 53.6 °F 51.8 °F 94% 29.95 in 10.0 mi NNW 15.0 mph - N/A   Overcast
5:35 PM 51.8 °F 51.8 °F 100% 29.96 in 10.0 mi NW 18.4 mph 24.2 mph N/A   Overcast
5:40 PM 51.8 °F 51.8 °F 100% 29.96 in 10.0 mi NNW 17.3 mph 24.2 mph N/A   Overcast
5:41 PM 51.8 °F 51.8 °F 100% 29.96 in 10.0 mi NW 13.8 mph 24.2 mph N/A   Overcast
5:42 PM 51.8 °F 50.0 °F 94% 29.96 in 10.0 mi NNW 13.8 mph 24.2 mph N/A   Overcast
5:45 PM 51.8 °F 50.0 °F 94% 29.97 in 10.0 mi NW 15.0 mph 24.2 mph N/A   Overcast
5:46 PM 51.8 °F 50.0 °F 94% 29.96 in 10.0 mi NNW 16.1 mph 23.0 mph N/A   Overcast
5:48 PM 51.8 °F 50.0 °F 94% 29.96 in 10.0 mi NW 15.0 mph 23.0 mph N/A   Overcast
5:55 PM 52.0 °F 50.2 °F 94% 29.97 in 10.0 mi NNW 17.3 mph 21.9 mph N/A   Mostly Cloudy
5:57 PM 51.8 °F 50.0 °F 94% 29.97 in 10.0 mi NNW 16.1 mph 21.9 mph N/A   Mostly Cloudy
6:05 PM 51.8 °F 50.0 °F 94% 29.97 in 10.0 mi NNW 15.0 mph - N/A   Mostly Cloudy
6:06 PM 51.8 °F 50.0 °F 94% 29.97 in 10.0 mi NW 12.7 mph - N/A   Mostly Cloudy
6:08 PM 51.8 °F 50.0 °F 94% 29.98 in 10.0 mi NNW 13.8 mph - N/A   Mostly Cloudy
6:09 PM 51.8 °F 50.0 °F 94% 29.97 in 10.0 mi NNW 13.8 mph - N/A   Overcast
6:12 PM 51.8 °F 50.0 °F 94% 29.97 in 10.0 mi NNW 15.0 mph - N/A   Overcast
6:13 PM 51.8 °F 48.2 °F 88% 29.97 in 10.0 mi NNW 16.1 mph - N/A   Overcast
6:33 PM 51.8 °F 48.2 °F 88% 29.99 in 10.0 mi NW 15.0 mph 24.2 mph N/A   Overcast
6:34 PM 51.8 °F 48.2 °F 88% 29.99 in 10.0 mi NNW 16.1 mph 24.2 mph N/A   Overcast
6:55 PM 51.1 °F 47.8 °F 89% 30.00 in 10.0 mi NW 15.0 mph 19.6 mph N/A   Overcast
7:44 PM 50.0 °F 48.2 °F 94% 30.01 in 10.0 mi NW 10.4 mph - N/A   Overcast
7:45 PM 50.0 °F 48.2 °F 94% 30.01 in 10.0 mi NW 11.5 mph - N/A   Overcast
7:53 PM 50.0 °F 46.4 °F 87% 30.01 in 10.0 mi NW 12.7 mph - N/A   Overcast
7:55 PM 49.8 °F 47.1 °F 90% 30.01 in 10.0 mi NW 11.5 mph - N/A   Overcast
8:55 PM 49.6 °F 44.8 °F 83% 30.02 in 10.0 mi NW 17.3 mph 23.0 mph N/A   Overcast
9:55 PM 48.6 °F 44.1 °F 84% 30.02 in 10.0 mi NNW 13.8 mph - N/A   Overcast
10:55 PM 47.7 °F 42.4 °F 82% 30.03 in 10.0 mi NW 11.5 mph - N/A   Overcast
10:56 PM 48.2 °F 42.8 °F 82% 30.03 in 10.0 mi NW 11.5 mph - N/A   Overcast
11:55 PM 47.5 °F 42.8 °F 84% 30.01 in 10.0 mi NW 12.7 mph 19.6 mph N/A   Mostly Cloudy